When you browse on this site, cookies collect data to enhance your experience and personalize the content and advertising you see.
Visit our Privacy Policy to learn more. By continuing to use the site, you agree to this use of cookies and data.
  • In Latvia
  • List of Countries
  • For 7 days
  • Water Temperature
  • Satellite Maps
  • Weather Map
  • Weather Widgets
  • user-avatar
    Login

    Hourly Weather Jekabpils

    Today, 20 July, Saturday

    Time Temperature Precipitation Wind Pressure Humidity
    00:00 +13°C° 0 mm 2 mps 752 mmHg 90%
    01:00 +12°C° 0 mm 2 mps 753 mmHg 92%
    02:00 +12°C° 0 mm 2 mps 753 mmHg 94%
    03:00 +12°C° 0 mm 2 mps 753 mmHg 94%
    04:00 +12°C° 0 mm 2 mps 753 mmHg 94%
    05:00 +12°C° 0 mm 2 mps 753 mmHg 95%
    06:00 +14°C° 0 mm 2 mps 753 mmHg 86%
    07:00 +16°C° 0 mm 2 mps 754 mmHg 77%
    08:00 +18°C° 0 mm 2 mps 754 mmHg 69%
    09:00 +20°C° 0 mm 2 mps 754 mmHg 62%
    10:00 +23°C° 0 mm 2 mps 754 mmHg 55%
    11:00 +24°C° 0 mm 2 mps 754 mmHg 47%
    12:00 +25°C° 0 mm 2 mps 754 mmHg 45%
    13:00 +25°C° 0 mm 2 mps 754 mmHg 43%
    14:00 +26°C° 0 mm 2 mps 754 mmHg 42%
    15:00 +26°C° 0 mm 2 mps 754 mmHg 43%
    16:00 +26°C° 0 mm 2 mps 754 mmHg 45%
    17:00 +26°C° 0 mm 2 mps 754 mmHg 46%
    18:00 +24°C° 0 mm 2 mps 754 mmHg 55%
    19:00 +21°C° 0 mm 2 mps 754 mmHg 65%
    20:00 +20°C° 0 mm 1 mps 755 mmHg 74%
    21:00 +18°C° 0 mm 1 mps 755 mmHg 77%
    22:00 +16°C° 0 mm 1 mps 755 mmHg 80%
    23:00 +15°C° 0 mm 1 mps 756 mmHg 84%

    Tomorrow, 21 July, Sunday

    Time Temperature Precipitation Wind Pressure Humidity
    00:00 +13°C° 0 mm 0 mps 756 mmHg 86%
    01:00 +12°C° 0 mm 0 mps 756 mmHg 88%
    02:00 +12°C° 0 mm 0 mps 756 mmHg 90%
    03:00 +12°C° 0 mm 0 mps 756 mmHg 89%
    04:00 +12°C° 0 mm 0 mps 756 mmHg 89%
    05:00 +12°C° 0 mm 0 mps 756 mmHg 89%
    06:00 +15°C° 0 mm 0 mps 756 mmHg 81%
    07:00 +17°C° 0 mm 0 mps 756 mmHg 72%
    08:00 +20°C° 0 mm 0 mps 756 mmHg 64%
    09:00 +23°C° 0 mm 1 mps 756 mmHg 58%
    10:00 +25°C° 0 mm 1 mps 756 mmHg 52%
    11:00 +27°C° 0 mm 1 mps 755 mmHg 45%
    12:00 +27°C° 0 mm 1 mps 755 mmHg 43%
    13:00 +28°C° 0 mm 1 mps 755 mmHg 41%
    14:00 +28°C° 0 mm 1 mps 755 mmHg 38%
    15:00 +28°C° 0 mm 1 mps 754 mmHg 40%
    16:00 +28°C° 0 mm 2 mps 754 mmHg 42%
    17:00 +27°C° 0 mm 2 mps 754 mmHg 44%
    18:00 +25°C° 0 mm 2 mps 754 mmHg 55%
    19:00 +23°C° 0 mm 2 mps 754 mmHg 67%
    20:00 +20°C° 0 mm 2 mps 754 mmHg 78%
    21:00 +19°C° 0 mm 2 mps 754 mmHg 81%
    22:00 +18°C° 0 mm 2 mps 754 mmHg 83%
    23:00 +17°C° 0 mm 2 mps 754 mmHg 86%

    Day after tomorrow, 22 July, Monday

    Time Temperature Precipitation Wind Pressure Humidity
    00:00 +17°C° 0.3 mm 2 mps 753 mmHg 88%
    01:00 +18°C° 0.3 mm 1 mps 753 mmHg 89%
    02:00 +18°C° 0.3 mm 1 mps 753 mmHg 90%
    03:00 +16°C° 0.8 mm 1 mps 753 mmHg 92%
    04:00 +16°C° 0.8 mm 1 mps 753 mmHg 94%
    05:00 +16°C° 0.8 mm 1 mps 753 mmHg 97%
    06:00 +16°C° 0.9 mm 1 mps 753 mmHg 97%
    07:00 +16°C° 0.9 mm 1 mps 753 mmHg 98%
    08:00 +16°C° 0.9 mm 2 mps 752 mmHg 98%
    09:00 +16°C° 0.7 mm 1 mps 752 mmHg 98%
    10:00 +18°C° 0.7 mm 1 mps 752 mmHg 98%
    11:00 +18°C° 0.7 mm 1 mps 752 mmHg 98%
    12:00 +18°C° 0.5 mm 1 mps 752 mmHg 98%
    13:00 +18°C° 0.5 mm 1 mps 752 mmHg 98%
    14:00 +19°C° 0.5 mm 1 mps 752 mmHg 97%
    15:00 +18°C° 0.4 mm 2 mps 752 mmHg 97%
    16:00 +18°C° 0.4 mm 2 mps 752 mmHg 97%
    17:00 +18°C° 0.4 mm 2 mps 752 mmHg 97%
    18:00 +17°C° 0.2 mm 2 mps 752 mmHg 97%
    19:00 +17°C° 0.2 mm 2 mps 752 mmHg 97%
    20:00 +18°C° 0.2 mm 1 mps 752 mmHg 97%
    21:00 +18°C° 0 mm 1 mps 752 mmHg 97%
    22:00 +18°C° 0 mm 1 mps 753 mmHg 97%
    23:00 +18°C° 0 mm 1 mps 753 mmHg 97%

    23 July, Tuesday

    Time Temperature Precipitation Wind Pressure Humidity
    00:00 +16°C° 0 mm 1 mps 753 mmHg 97%
    01:00 +16°C° 0 mm 1 mps 753 mmHg 97%
    02:00 +15°C° 0 mm 1 mps 753 mmHg 97%
    03:00 +15°C° 0 mm 1 mps 753 mmHg 97%
    04:00 +15°C° 0 mm 1 mps 753 mmHg 97%
    05:00 +15°C° 0 mm 1 mps 753 mmHg 97%
    06:00 +16°C° 0 mm 1 mps 753 mmHg 92%
    07:00 +19°C° 0 mm 1 mps 754 mmHg 87%
    08:00 +20°C° 0 mm 1 mps 754 mmHg 82%
    09:00 +22°C° 0 mm 1 mps 754 mmHg 70%
    10:00 +24°C° 0 mm 2 mps 754 mmHg 58%
    11:00 +26°C° 0 mm 2 mps 753 mmHg 45%
    12:00 +26°C° 0 mm 2 mps 753 mmHg 44%
    13:00 +27°C° 0 mm 2 mps 753 mmHg 42%
    14:00 +27°C° 0 mm 2 mps 753 mmHg 41%
    15:00 +27°C° 0 mm 2 mps 753 mmHg 43%
    16:00 +27°C° 0 mm 2 mps 753 mmHg 46%
    17:00 +26°C° 0 mm 2 mps 753 mmHg 49%
    18:00 +24°C° 0 mm 2 mps 753 mmHg 59%
    19:00 +21°C° 0 mm 2 mps 753 mmHg 69%
    20:00 +21°C° 0 mm 1 mps 753 mmHg 79%
    21:00 +19°C° 0 mm 1 mps 753 mmHg 82%
    22:00 +18°C° 0 mm 1 mps 753 mmHg 85%
    23:00 +16°C° 0 mm 1 mps 753 mmHg 88%

    24 July, Wednesday

    Time Temperature Precipitation Wind Pressure Humidity
    00:00 +15°C° 0 mm 1 mps 753 mmHg 91%
    01:00 +15°C° 0 mm 1 mps 753 mmHg 93%
    02:00 +14°C° 0 mm 1 mps 753 mmHg 96%
    03:00 +14°C° 0 mm 1 mps 753 mmHg 96%
    04:00 +14°C° 0 mm 1 mps 753 mmHg 97%
    05:00 +14°C° 0 mm 1 mps 753 mmHg 97%
    06:00 +16°C° 0 mm 1 mps 753 mmHg 90%
    07:00 +19°C° 0 mm 1 mps 753 mmHg 83%
    08:00 +20°C° 0 mm 2 mps 754 mmHg 77%
    09:00 +21°C° 0.1 mm 2 mps 753 mmHg 72%
    10:00 +23°C° 0.1 mm 2 mps 753 mmHg 68%
    11:00 +24°C° 0.1 mm 3 mps 753 mmHg 64%
    12:00 +24°C° 0.2 mm 3 mps 753 mmHg 63%
    13:00 +25°C° 0.2 mm 3 mps 753 mmHg 63%
    14:00 +25°C° 0.2 mm 3 mps 753 mmHg 62%
    15:00 +25°C° 0.1 mm 3 mps 753 mmHg 61%
    16:00 +25°C° 0.1 mm 3 mps 753 mmHg 61%
    17:00 +25°C° 0.1 mm 3 mps 753 mmHg 60%
    18:00 +24°C° 0 mm 3 mps 753 mmHg 67%
    19:00 +21°C° 0 mm 3 mps 753 mmHg 73%
    20:00 +19°C° 0 mm 2 mps 753 mmHg 80%
    21:00 +18°C° 0 mm 2 mps 754 mmHg 85%
    22:00 +17°C° 0 mm 2 mps 754 mmHg 91%
    23:00 +15°C° 0 mm 2 mps 754 mmHg 96%

    25 July, Thursday

    Time Temperature Precipitation Wind Pressure Humidity
    00:00 +15°C° 0 mm 2 mps 754 mmHg 95%
    01:00 +15°C° 0 mm 2 mps 754 mmHg 94%
    02:00 +15°C° 0 mm 1 mps 755 mmHg 93%
    03:00 +15°C° 0 mm 1 mps 755 mmHg 93%
    04:00 +15°C° 0 mm 1 mps 755 mmHg 92%
    05:00 +16°C° 0 mm 1 mps 755 mmHg 92%
    06:00 +17°C° 0 mm 2 mps 755 mmHg 88%
    07:00 +17°C° 0 mm 2 mps 755 mmHg 85%
    08:00 +18°C° 0 mm 2 mps 755 mmHg 81%
    09:00 +20°C° 0 mm 2 mps 755 mmHg 73%
    10:00 +21°C° 0 mm 3 mps 755 mmHg 65%
    11:00 +24°C° 0 mm 3 mps 755 mmHg 58%
    12:00 +24°C° 0 mm 3 mps 755 mmHg 53%
    13:00 +25°C° 0 mm 3 mps 755 mmHg 48%
    14:00 +26°C° 0 mm 4 mps 755 mmHg 43%
    15:00 +25°C° 0 mm 4 mps 755 mmHg 45%
    16:00 +25°C° 0 mm 4 mps 755 mmHg 47%
    17:00 +23°C° 0 mm 4 mps 755 mmHg 49%
    18:00 +22°C° 0 mm 3 mps 755 mmHg 57%
    19:00 +20°C° 0 mm 3 mps 756 mmHg 65%
    20:00 +18°C° 0 mm 3 mps 756 mmHg 73%
    21:00 +17°C° 0 mm 2 mps 756 mmHg 78%
    22:00 +16°C° 0 mm 2 mps 756 mmHg 83%
    23:00 +15°C° 0 mm 2 mps 757 mmHg 89%
    Show more